Flag for U.S.A. Weather past 2 weeks in Bellingham, Washington, U.S.A.

Now
58 °F

Sunny.


Feels Like: 58 °F
Forecast: 54 / 74 °F
Wind: No wind

Location: Bellingham International Airport

Current Time: May 28, 2015 at 8:58:23 AM

Latest Report: May 28, 2015 at 7:53 AM


Visibility: 10 mi

Pressure: 30.09 "Hg

Humidity: 87%

Dew point: 54 °F

Location of BellinghamLocation

Historic Weather in Bellingham — Graph

°F

Bellingham temperature yesterday

Maximum temperature yesterday: 73 °F (at 5:53 PM)
Minimum temperature yesterday: 55 °F (at 4:53 AM)
Average temperature yesterday: 62 °F

Past Weeks' High & Low Weather Summary

 TemperatureHumidityPressure
High73 °F (May 18, 3:53 PM)97% (May 18, 5:53 AM)30.19 "Hg (May 18, 5:53 AM)
Low48 °F (May 15, 3:53 AM)49% (May 20, 4:53 PM)29.82 "Hg (May 21, 4:53 PM)
Average58 °F79%30.00 "Hg
* Reported May 13 7:53 AM — May 28 7:53 AM, Bellingham, Weather by CustomWeather, © 2015

Note: Actual official high and low records may vary slightly from our data, if they occured in-between our weather recording intervals... More about our weather records

Advertising

Bellingham weather history for previous 24 hours

 ConditionsComfort  
Time TempWeatherWind HumidityBarometerVisibility
7:53 AM
Thu, May 28
58 °FSunny.No wind87%30.09 "Hg10 mi
6:53 AM57 °FSunny.3 mph90%30.09 "Hg10 mi
5:53 AM55 °FClear.No wind93%30.07 "Hg10 mi
4:53 AM55 °FClear.5 mph93%30.07 "Hg10 mi
3:53 AM56 °FClear.3 mph90%30.06 "Hg10 mi
2:53 AM56 °FClear.3 mph93%30.06 "Hg10 mi
1:53 AM57 °FClear.6 mph90%30.05 "Hg10 mi
12:53 AM58 °FClear.5 mph87%30.05 "Hg10 mi
11:53 PM
Wed, May 27
59 °FClear.5 mph87%30.04 "Hg10 mi
10:53 PM60 °FClear.7 mph83%30.04 "Hg10 mi
9:53 PM59 °FSunny.No wind87%30.04 "Hg10 mi
8:53 PM63 °FSunny.5 mph78%30.02 "Hg10 mi
7:53 PM68 °FSunny.No wind61%30.02 "Hg10 mi
6:53 PM71 °FSunny.No wind51%30.01 "Hg10 mi
5:53 PM73 °FSunny.5 mph55%30.01 "Hg10 mi
4:53 PM72 °FSunny.3 mph52%30.03 "Hg10 mi
3:53 PM72 °FSunny.No wind53%30.03 "Hg10 mi
2:53 PM70 °FSunny.7 mph59%30.05 "Hg10 mi
1:53 PM69 °FSunny.5 mph61%30.07 "Hg10 mi
12:53 PM67 °FSunny.5 mph63%30.08 "Hg10 mi
11:53 AM64 °FOvercast.No wind70%30.09 "Hg10 mi
10:53 AM59 °FOvercast.No wind81%30.09 "Hg10 mi
9:53 AM58 °FOvercast.5 mph81%30.09 "Hg10 mi
8:53 AM56 °FOvercast.8 mph87%30.09 "Hg10 mi
Weather by CustomWeather, © 2015

See weather overviewHow to use our weather pages